Weather History for Medicine Lodge, KS

Change the Weather History Date:

Tuesday, November 19, 2013

  Actual Average Record
Temperature  
Mean Temperature 50 °F 44 °F  
Max Temperature 62 °F 56 °F 84 °F (2007)
Min Temperature 38 °F 31 °F 11 °F (1921)
Degree Days  
Heating Degree Days 15 21  
Month to date heating degree days 316 323  
Since 1 July heating degree days 603 592  
Cooling Degree Days 0 0  
Month to date cooling degree days 0 0  
Year to date cooling degree days 1786 1769  
Moisture  
Dew Point 30 °F    
Average Humidity 53    
Maximum Humidity 70    
Minimum Humidity 35    
Precipitation  
Precipitation 0.00 in 0.03 in 1.16 in (1992)
Month to date precipitation 0.30 0.69  
Year to date precipitation 24.86 25.98  
Snow  
Snow 0.00 in 0.00 in - ()
Month to date snowfall 0.0 0.0  
Since 1 July snowfall 0.0 0.0  
Since 1 September snowfall 0.0 0.0  
Snow Depth 0.00 in    
Sea Level Pressure  
Sea Level Pressure 30.00 in    
Wind  
Wind Speed 12 mph (SE)    
Max Wind Speed 29 mph    
Max Gust Speed 37 mph    
T = Trace of Precipitation, MM = Missing Value Source: NWS Daily Summary

Daily Weather History Graph

Daily Weather History Graph

Search for Another Location

Airport:

Trip Planner

Search our weather history database for the weather conditions in past years. The results will help you decide how hot, cold, wet, or windy it might be!

Date:

Astronomy

Nov. 19, 2013 Rise Set
Actual Time 7:17 AM CST 5:21 PM CST
Civil Twilight 6:49 AM CST 5:49 PM CST
Nautical Twilight 6:18 AM CST 6:20 PM CST
Astronomical Twilight 5:47 AM CST 6:51 PM CST
Moon 7:13 PM CST (11/19) 8:57 AM CST (11/19)
Length of Visible Light 10h 59m
Length of Day
10h 03m
Waning Gibbous, 96% of the Moon is Illuminated
Nov 19
Waning Gibbous
Nov 25
Last Quarter
Dec 2
New
Dec 9
First Quarter
Dec 17
Full

Hourly Weather History & Observations

Time (CST) Temp. Windchill Dew Point Humidity Pressure Visibility Wind Dir Wind Speed Gust Speed Precip Events Conditions
12:56 AM 44.1 °F 40.8 °F 26.1 °F 49% 30.19 in - ESE 5.8 mph - N/A   Unknown
1:56 AM 43.0 °F 40.3 °F 26.1 °F 51% 30.18 in - ESE 4.6 mph - N/A   Unknown
2:56 AM 42.1 °F 38.4 °F 26.1 °F 53% 30.17 in - East 5.8 mph - N/A   Unknown
3:56 AM 42.1 °F 39.2 °F 27.0 °F 55% 30.16 in - ESE 4.6 mph - N/A   Unknown
4:56 AM 41.0 °F 36.4 °F 28.0 °F 60% 30.14 in - ESE 6.9 mph - N/A   Unknown
5:56 AM 39.0 °F 34.8 °F 28.0 °F 65% 30.13 in - ESE 5.8 mph - N/A   Unknown
6:56 AM 37.9 °F 33.5 °F 28.9 °F 70% 30.12 in - ESE 5.8 mph - N/A   Unknown
7:56 AM 39.0 °F 34.0 °F 30.0 °F 70% 30.11 in - SE 6.9 mph - N/A   Unknown
8:56 AM 46.9 °F - 34.0 °F 61% 30.11 in - SE 5.8 mph - N/A   Unknown
9:56 AM 53.1 °F - 35.1 °F 50% 30.08 in - South 18.4 mph 25.3 mph N/A   Unknown
10:56 AM 57.0 °F - 30.9 °F 37% 30.05 in - South 23.0 mph 36.8 mph N/A   Unknown
11:56 AM 59.0 °F - 32.0 °F 36% 30.01 in - South 18.4 mph 33.4 mph N/A   Unknown
12:56 PM 60.1 °F - 32.0 °F 35% 29.95 in - South 19.6 mph 33.4 mph N/A   Unknown
1:56 PM 61.0 °F - 32.0 °F 34% 29.91 in - South 20.7 mph 34.5 mph N/A   Unknown
2:56 PM 61.0 °F - 32.0 °F 34% 29.88 in - SSE 16.1 mph 33.4 mph N/A   Unknown
3:56 PM 59.0 °F - 33.1 °F 38% 29.86 in - SSE 16.1 mph 29.9 mph N/A   Unknown
4:56 PM 57.0 °F - 33.1 °F 40% 29.86 in - SSE 16.1 mph 29.9 mph N/A   Unknown
5:56 PM 54.0 °F - 30.9 °F 41% 29.87 in - SSE 12.7 mph 25.3 mph N/A   Unknown
6:56 PM 53.1 °F - 30.0 °F 41% 29.88 in - SSE 10.4 mph 26.5 mph N/A   Unknown
7:56 PM 52.0 °F - 28.9 °F 41% 29.87 in - SE 12.7 mph 20.7 mph N/A   Unknown
8:56 PM 50.0 °F - 28.0 °F 43% 29.86 in - SSE 13.8 mph 21.9 mph N/A   Unknown
9:56 PM 50.0 °F - 27.0 °F 41% 29.85 in - SSE 10.4 mph 21.9 mph N/A   Unknown
10:56 PM 50.0 °F - 27.0 °F 41% 29.84 in - SSE 11.5 mph 19.6 mph N/A   Unknown
11:56 PM 50.0 °F - 27.0 °F 41% 29.84 in - SSE 16.1 mph 19.6 mph N/A   Unknown